Location: Fontevrault
(47.1823°N, 0.0493°E)
Time: 13:40:42
(UTC+00:00)

Lacrosse 5 rocket - Pass Details

Date: 16 June 2021
Orbit: 460 x 634 km, 57.0° (Epoch: 29 July)

Event Time Altitude Azimuth Distance (km) Brightness Sun altitude
Rises 20:47:55 0° 184° (S) 2,545 4.3 -7.2°
Reaches altitude 10° 20:50:53 10° 158° (SSE) 1,642 3.2 -7.5°
Maximum altitude 20:52:52 14° 125° (SE) 1,395 2.8 -7.7°
Drops below altitude 10° 20:54:50 10° 92° (E) 1,621 3.3 -8.0°
Sets 20:57:44 0° 67° (ENE) 2,490 4.5 -8.3°
